Regional Weather Roundup
Issued by NWS

Home | Current Version | Previous Version | Text Only | Print | Product List | Glossary Off
Versions: 1 2 3 4 5 6 7 8 9 10 11 12 13 14 15 16 17 18 19 20 21 22 23 24 25 26 27 28 29 30 31 32 33 34 35 36 37 38 39 40 41 42 43 44 45 46 47 48 49 50

992
ASUS45 KSLC 262310
RWRUT

UTAH REGIONAL WEATHER ROUNDUP
NATIONAL WEATHER SERVICE SALT LAKE CITY UT
500 PM MDT FRI MAY 26 2017

UTZ001>011-023>025-270000-

NORTHERN UTAH

CITY           SKY/WX    TMP DP  RH WIND       PRES   REMARKS
BRIGHAM CITY   MOSUNNY   63  29  27 NW12      29.93R
HILL AFB       MOSUNNY   64  30  27 NW17      29.92R
LOGAN          PTSUNNY   63  37  38 N9        29.93R
OGDEN          PTSUNNY   66  32  28 N14       29.91R
SALT LAKE CITY MOSUNNY   68  32  26 N15       29.91S
TOOELE VALLEY  MOSUNNY   63  36  36 N8        29.93R
WENDOVER       MOSUNNY   68  29  23 NW17G26   29.91R
HEBER CITY     PTSUNNY   63  34  34 E8        29.89S
WEST JORDAN    MOSUNNY   65  42  43 NW15G21   29.92R

$$

UTZ011>015-024>027-270000-

CENTRAL/NORTHEAST UTAH

CITY           SKY/WX    TMP DP  RH WIND       PRES   REMARKS
PROVO AIRPORT  PTSUNNY   66  37  34 NW16      29.89R
MOAB/CANYONLAN MOSUNNY   84  15   7 SW22G30   29.71F
DELTA          MOSUNNY   73  27  17 N17G23    29.83S
PRICE          MOSUNNY   73  21  14 W21G32    29.81S
ROOSEVELT      CLOUDY    77  27  15 W22G33    29.78R
VERNAL         CLOUDY    77  28  16 W20       29.75S

$$

UTZ013>016-019>022-027-270000-

SOUTHERN UTAH

CITY           SKY/WX    TMP DP  RH WIND       PRES   REMARKS
BRYCE CANYON   MOSUNNY   67  18  15 W13G29    29.99R
CEDAR CITY     SUNNY     75  22  13 S17G29    29.88S
MILFORD        PTSUNNY   77  23  13 SW25G35   29.79F
HANKSVILLE     PTSUNNY   81  23  12 SW31G38   29.76R
BLANDING       SUNNY     76  15   9 SW16G25   29.95S

$$

REGIONAL REPORTS     COLORADO/ARIZONA

CITY           SKY/WX    TMP DP  RH WIND       PRES   REMARKS
CRAIG, CO      CLOUDY    67  29  24 NW13G20   29.80S
GRAND JUNCTION SUNNY     82  13   7 SW13G30   29.73F
RIFLE, CO      SUNNY     79   6   6 SW30G37   29.77F
MONTROSE, CO   SUNNY     77  11   8 W20G28    29.85F
CORTEZ, CO     SUNNY     78   7   6 SW15G22   29.91F
COLORADO CITY    N/A     82  23  11 W16G26    29.91S
PAGE, AZ       SUNNY     86  19   8 SW9G17    29.78F
GRAND CANYON   SUNNY     72  20  14 SW21G32   30.02R
KINGMAN, AZ    SUNNY     84  23  10 SW23G32   29.87F
FLAGSTAFF, AZ  SUNNY     68  15  13 SW22G36   30.07S

$$

REGIONAL REPORTS    NEVADA/IDAHO/WYOMING

CITY           SKY/WX    TMP DP  RH WIND       PRES   REMARKS
LAS VEGAS, NV  MOSUNNY   91  20   7 SW14G21   29.71F
ELY, NY        MOSUNNY   68  22  17 NW15G24   29.94S
ELKO, NV       PTSUNNY   61  27  27 VRB5      29.98R
POCATELLO, ID  CLOUDY    46  42  86 N7        30.01R
BURLEY, ID     PTSUNNY   51  45  79 SE8       29.98F
FORT BRIDGER,    N/A     58  27  30 W17G31    29.97S
EVANSTON, WY   CLOUDY    56  28  34 SW29G39   29.95S
ROCK SPRINGS,  CLOUDY    53  29  39 W22G28    29.91F
KEMMERER, WY     N/A     52  34  50 NW23G32   29.96R

$$




USA.gov is the U.S. government's official web portal to all federal, state and local government web resources and services.